Location: Unspecified
(0.0000°N, 0.0000°E)
Time: 11:59:27
(UTC+00:00)

Courier 1B - All Passes

Search period start: 07 October 2022 00:00
Search period end: 17 October 2022 00:00
Orbit: 962 x 1209 km, 28.3° (Epoch: 06 October)

Date Brightness Start Highest point End Pass type
(mag) Time Alt. Az. Time Alt. Az. Time Alt. Az.
07 Oct - 05:33:55 10° SSW 05:38:23 17° SSE 05:42:58 10° ESE daylight
07 Oct - 07:25:50 10° SW 07:33:13 52° SSE 07:40:48 10° ENE daylight
07 Oct - 09:20:09 10° WSW 09:27:41 51° NNW 09:35:16 10° NE daylight
07 Oct - 11:17:49 10° WNW 11:22:38 17° NNW 11:27:26 10° NNE daylight
07 Oct - 17:09:18 10° N 17:12:02 12° NNE 17:14:42 10° NE daylight
07 Oct - 19:00:35 10° NW 19:06:52 40° NNE 19:12:55 10° E visible
07 Oct - 20:54:30 10° WNW 21:00:55 55° SSW 21:07:14 10° SE visible
07 Oct - 22:51:41 10° WSW 22:55:19 15° SSW 22:58:59 10° S night (unlit)
08 Oct - 04:41:34 10° S 04:44:09 12° SSE 04:46:45 10° SE visible
08 Oct - 06:32:21 10° SW 06:39:10 38° SSE 06:46:16 10° E daylight
08 Oct - 08:25:58 10° WSW 08:33:38 70° NNW 08:41:28 10° NE daylight
08 Oct - 10:22:29 10° WNW 10:28:24 23° NNW 10:34:18 10° NNE daylight
08 Oct - 18:07:06 10° NNW 18:12:58 29° NNE 18:18:35 10° E visible
08 Oct - 20:00:28 10° WNW 20:07:09 78° SSW 20:13:38 10° SE visible
08 Oct - 21:56:34 10° WSW 22:01:20 21° SSW 22:06:07 10° SSE night (unlit)
09 Oct - 05:39:02 10° SSW 05:45:08 28° SSE 05:51:27 10° E daylight
09 Oct - 07:32:01 10° WSW 07:39:36 88° SSE 07:47:29 10° ENE daylight
09 Oct - 09:27:34 10° W 09:34:12 30° NNW 09:40:55 10° NNE daylight
09 Oct - 11:28:25 10° NNW 11:29:43 10° NNW 11:31:02 10° N daylight
09 Oct - 17:13:43 10° NNW 17:18:58 22° NNE 17:24:01 10° ENE daylight
09 Oct - 19:06:33 10° NW 19:13:24 75° NNE 19:19:55 10° ESE visible
09 Oct - 21:01:51 10° W 21:07:28 29° SSW 21:13:00 10° SSE visible
10 Oct - 04:45:59 10° SSW 04:51:03 20° SSE 04:56:17 10° ESE visible
10 Oct - 06:38:16 10° SW 06:45:36 66° SSE 06:53:18 10° ENE daylight
10 Oct - 08:33:00 10° W 08:40:04 40° NNW 08:47:21 10° NE daylight
10 Oct - 10:31:32 10° NW 10:35:18 14° NNW 10:39:04 10° N daylight
10 Oct - 16:20:30 10° NNW 16:24:52 17° NNE 16:29:06 10° ENE daylight
10 Oct - 18:12:46 10° NW 18:19:34 54° NNE 18:26:01 10° ESE visible
10 Oct - 20:07:21 10° W 20:13:38 42° SSW 20:19:43 10° SE visible
10 Oct - 22:06:03 10° SW 22:08:14 12° SSW 22:10:24 10° S night (unlit)
11 Oct - 03:53:18 10° S 03:56:55 14° SSE 04:00:38 10° SE visible
11 Oct - 05:44:43 10° SW 05:51:38 47° SSE 05:58:55 10° ENE daylight
11 Oct - 07:38:42 10° WSW 07:46:00 54° NNW 07:53:37 10° NE daylight
11 Oct - 09:35:55 10° WNW 09:40:58 18° NNW 09:46:05 10° NNE daylight
11 Oct - 15:27:32 10° N 15:30:38 13° NNE 15:33:40 10° NE daylight
11 Oct - 17:19:05 10° NW 17:25:41 39° NNE 17:31:54 10° E daylight
11 Oct - 19:13:05 10° WNW 19:19:51 59° SSW 19:26:18 10° SE visible
11 Oct - 21:10:12 10° WSW 21:14:11 16° SSW 21:18:07 10° SSE visible
12 Oct - 03:02:34 10° SSE 03:02:43 10° SSE 03:02:53 10° SSE visible
12 Oct - 04:51:21 10° SW 04:57:40 34° SSE 05:04:18 10° E visible
12 Oct - 06:44:40 10° WSW 06:52:00 74° NNW 06:59:44 10° NE daylight
12 Oct - 08:40:48 10° WNW 08:46:43 24° NNW 08:52:46 10° NNE daylight
12 Oct - 16:25:30 10° NNW 16:31:42 29° NNE 16:37:34 10° E daylight
12 Oct - 18:18:58 10° WNW 18:26:03 84° SSW 18:32:44 10° ESE visible
12 Oct - 20:15:04 10° WSW 20:20:14 23° SSW 20:25:16 10° SSE visible
13 Oct - 03:58:12 10° SSW 04:03:41 25° SSE 04:09:25 10° E visible
13 Oct - 05:50:51 10° WSW 05:58:02 83° SSE 06:05:41 10° ENE daylight
13 Oct - 07:46:05 10° W 07:52:34 32° NNW 07:59:17 10° NNE daylight
13 Oct - 09:46:00 10° NNW 09:48:03 11° NNW 09:50:06 10° N daylight
13 Oct - 15:32:03 10° NNW 15:37:37 22° NNE 15:42:56 10° ENE daylight
13 Oct - 17:24:58 10° NW 17:32:12 71° NNE 17:38:58 10° ESE daylight
13 Oct - 19:20:16 10° W 19:26:20 32° SSW 19:32:09 10° SSE visible
14 Oct - 03:05:19 10° SSW 03:09:41 18° SSE 03:14:11 10° ESE visible
14 Oct - 04:57:14 10° SW 05:04:08 60° SSE 05:11:28 10° ENE visible
14 Oct - 06:51:40 10° W 06:58:28 42° NNW 07:05:38 10° NE daylight
14 Oct - 08:49:45 10° NW 08:53:38 14° NNW 08:57:34 10° N daylight
14 Oct - 14:38:45 10° NNW 14:43:25 17° NNE 14:47:56 10° ENE daylight
14 Oct - 16:31:08 10° NW 16:38:18 52° NNE 16:45:02 10° ESE daylight
14 Oct - 18:25:44 10° WNW 18:32:29 46° SSW 18:38:53 10° SE visible
14 Oct - 20:24:06 10° SW 20:27:02 13° SSW 20:29:56 10° S visible
15 Oct - 02:12:58 10° S 02:15:35 12° SSE 02:18:16 10° SE visible
15 Oct - 04:03:48 10° SW 04:10:14 43° SSE 04:17:03 10° E visible
15 Oct - 05:57:31 10° WSW 06:04:28 57° NNW 06:11:52 10° NE daylight
15 Oct - 07:54:21 10° WNW 07:59:20 19° NNW 08:04:26 10° NNE daylight
15 Oct - 13:45:43 10° N 13:49:06 13° NNE 13:52:25 10° NE daylight
15 Oct - 15:37:24 10° NW 15:44:19 38° NNE 15:50:51 10° E daylight
15 Oct - 17:31:24 10° WNW 17:38:38 65° SSW 17:45:25 10° SE daylight
15 Oct - 19:28:24 10° WSW 19:32:59 18° SSW 19:37:28 10° SSE visible
16 Oct - 03:10:32 10° SSW 03:16:21 30° SSE 03:22:25 10° E visible
16 Oct - 05:03:36 10° WSW 05:10:32 77° NNW 05:17:57 10° NE visible
16 Oct - 06:59:26 10° WNW 07:05:08 24° NNW 07:11:05 10° NNE daylight
16 Oct - 12:53:52 10° N 12:54:41 10° NNE 12:55:29 10° NNE daylight
16 Oct - 14:43:47 10° NNW 14:50:15 29° NNE 14:56:25 10° E daylight
16 Oct - 16:37:15 10° WNW 16:44:45 89° SSW 16:51:48 10° ESE daylight
16 Oct - 18:33:16 10° W 18:39:01 26° SSW 18:44:32 10° SSE visible
